Weather in Andreyevka

Russia / Novosibirsk Oblast     53°50′29″N   77°26′45″E
temp.,
°C
wind,
m/s
gust,
m/s
humid.,
%
clouds,
%
prec.,
mm/h
press.,
hPa
HPBL,
m
28 february, sun
sun2801:00−28sse459716 0.0 103661
04:00−28sse46940 0.0 103483
07:00−27se489139 0.0 1032132
10:00−23se699098 0.0 1030239
13:00−19se6990100 0.0 1026313
16:00−14se61193100 0.3 1023462
19:00−11ese51093100 0.5 1020360
22:00−9ese61195100 0.1 1016311
1 march, mon
mon101:00−5se5996100 0.8 1012396
04:00−3se5997100 1.9 1008360
07:00+1wsw61399100 3.4 1006543
10:00+1sw71298100 0.3 1005634
13:000sw71198100 0.5 1006554
16:000wsw71192100 0.0 1006740
19:00−1wsw71295100 0.3 1007700
22:00−9nw359696 0.3 101078
2 march, tue
tue201:00−14wnw479693 0.3 1013116
04:00−17wnw459798 0.0 101582
07:00−19wnw349892 0.1 101838
10:00−19wsw239765 0.0 101847
13:00−15wsw339278 0.1 1018250
16:00−13sw3490100 0.1 1018394
19:00−14sw229598 0.3 101722
22:00−16sw229676 0.1 101720
3 march, wed
wed301:00−16sw229778 0.1 101721
04:00−16sw229787 0.1 101635
07:00−16sw229693 0.3 101720
10:00−15sw239691 0.1 1017108
13:00−12sw579492 0.1 1018354
16:00−14sw5892100 0.0 1018377
19:00−14ssw51092100 0.1 1019388
22:00−13s5109293 0.0 1019296
4 march, thu
thu401:00−11ssw6119396 0.1 1018401
04:00−10ssw61194100 0.4 1017367
07:00−10s61194100 0.6 1017349
10:00−9ssw71293100 0.2 1016385
13:00−6ssw81394100 0.4 1015558
16:00−3ssw81292100 0.3 1014648
19:00−3ssw81490100 0.7 1013600
22:00−4s71585100 0.0 1012417